QPF
0.00 0.00 0.00 0.00 0.00 0.00 0.00 0.00 0.00 0.00 0.00 0.00 0.00 0.00 0.00 0.00 0.00 0.00 0.00 0.00 0.00 0.00
0.00 0.00 0.00 0.00 0.00 0.00 0.00 0.00 0.00 0.00 0.00 0.00 0.00 0.00 0.00 0.00 0.00 0.00 0.00 0.00 0.00 0.00
0.00 0.00 0.00 0.00 0.00 0.00 0.00 0.00 0.00 0.00 0.00 0.00 0.00 0.00 0.00 0.00 0.00 0.00 0.00 0.00 0.00 0.00
0.00 0.00 0.00 0.00 0.00 0.00 0.00 0.00 0.00 0.00 0.00 0.00 0.00 0.00 0.00 0.00 0.00 0.00 0.00 0.00 0.00 0.00
0.00 0.00 0.00 0.00 0.00 0.00 0.00 0.00 0.00 0.00 0.00 0.00 0.00 0.00 0.00 0.00 0.00 0.00 0.00 0.00 0.00 0.00
0.00 0.00 0.00 0.00 0.00 0.00 0.00 0.00 0.00 0.00 0.00 0.00 0.00 0.00 0.00 0.00 0.00 0.00 0.00 0.00 0.00 0.00
0.00 0.00 0.00 0.00 0.00 0.00 0.00 0.00 0.00 0.00 0.00 0.00 0.00 0.00 0.00 0.00 0.00 0.00 0.00 0.00 0.00 0.00
0.00 0.00 0.00 0.00 0.00 0.00 0.00 0.00 0.00 0.00 0.00 0.00 0.00 0.01 0.00 0.00 0.00 0.00 0.00 0.00 0.00 0.00
0.00 0.00 0.00 0.00 0.00 0.00 0.00 0.00 0.00 0.00 0.00 0.00 0.01 0.00 0.00 0.00 0.00 0.00 0.00 0.00 0.00 0.00
0.00 0.00 0.00 0.00 0.00 0.00 0.00 0.00 0.00 0.00 0.00 0.00 0.01 0.00 0.00 0.00 0.00 0.00 0.00 0.00 0.00 0.00
0.00 0.00 0.00 0.00 0.00 0.00 0.00 0.00 0.00 0.00 0.00 0.00 0.00 0.00 0.00 0.00 0.00 0.00 0.00 0.00 0.00 0.00
0.00 0.00 0.00 0.00 0.00 0.00 0.00 0.00 0.00 0.00 0.00 0.00 0.00 0.00 0.00 0.00 0.00 0.00 0.00 0.00 0.00 0.00
0.00 0.00 0.00 0.00 0.00 0.00 0.00 0.00 0.00 0.00 0.00 0.00 0.00 0.00 0.00 0.00 0.00 0.00 0.00 0.00 0.00 0.00
0.00 0.00 0.00 0.00 0.00 0.00 0.00 0.00 0.00 0.00 0.00 0.00 0.00 0.00 0.00 0.00 0.00 0.01 0.01 0.00 0.00 0.00
MSLP
1019.95 1020.28 1020.39 1020.50 1020.76 1020.96 1021.04 1021.09 1021.02 1021.01 1020.94 1020.81 1020.63 1020.69 1020.55 1020.31 1020.05 1019.70 1019.35 1019.02 1018.67 1018.22
1020.38 1020.66 1020.82 1020.88 1021.08 1021.39 1021.46 1021.22 1021.05 1020.97 1020.86 1020.80 1020.88 1020.83 1020.65 1020.52 1020.22 1019.95 1019.58 1019.32 1018.91 1018.63
1020.67 1020.89 1021.15 1021.36 1021.62 1021.69 1021.68 1021.50 1021.34 1021.22 1021.08 1020.84 1020.89 1020.91 1020.81 1020.63 1020.34 1020.24 1020.01 1019.74 1019.30 1018.77
1021.10 1021.24 1021.41 1021.62 1021.90 1021.96 1021.88 1021.67 1021.63 1021.43 1021.33 1021.23 1021.27 1021.02 1020.99 1020.95 1020.77 1020.64 1020.34 1019.88 1019.36 1018.76
1021.26 1021.46 1021.86 1022.05 1022.08 1021.97 1021.94 1021.82 1021.80 1021.79 1021.75 1021.60 1021.52 1021.27 1021.44 1021.37 1021.21 1020.94 1020.37 1019.75 1019.18 1018.42
1021.56 1021.92 1022.24 1022.26 1022.24 1022.01 1022.01 1022.26 1022.12 1022.08 1022.03 1021.86 1021.71 1021.82 1021.82 1021.71 1021.43 1021.05 1020.47 1019.79 1018.98 1018.04
1021.98 1022.27 1022.41 1022.51 1022.48 1022.33 1022.29 1022.41 1022.26 1022.20 1022.23 1022.25 1022.03 1022.25 1022.12 1021.92 1021.52 1021.04 1020.37 1019.64 1019.01 1018.07
1022.20 1022.47 1022.78 1022.77 1022.71 1022.66 1022.54 1022.56 1022.55 1022.60 1022.70 1022.48 1022.34 1022.47 1022.12 1022.01 1021.67 1021.03 1020.26 1019.54 1018.94 1018.33
1022.45 1022.90 1023.01 1023.03 1023.02 1022.93 1022.95 1022.93 1023.01 1023.18 1023.03 1022.90 1022.72 1022.50 1022.24 1022.24 1021.79 1021.10 1020.26 1019.48 1018.94 1018.31
1022.92 1023.07 1023.21 1023.29 1023.45 1023.41 1023.44 1023.50 1023.51 1023.62 1023.65 1023.28 1022.96 1022.62 1022.50 1022.42 1021.99 1021.30 1020.55 1019.88 1019.14 1018.21
1022.90 1023.32 1023.58 1023.84 1023.92 1023.89 1023.79 1023.96 1024.20 1024.31 1024.06 1023.72 1023.42 1023.06 1022.70 1022.47 1022.02 1021.38 1020.76 1020.10 1019.33 1018.48
1023.07 1023.62 1023.88 1024.20 1024.29 1024.29 1024.42 1024.74 1024.89 1024.81 1024.45 1024.15 1024.03 1023.48 1022.86 1022.36 1021.99 1021.34 1020.71 1020.16 1019.44 1018.68
1023.16 1023.64 1024.14 1024.30 1024.71 1024.99 1025.22 1025.54 1025.44 1025.24 1025.05 1024.72 1024.38 1023.78 1022.93 1022.23 1021.89 1021.39 1020.73 1020.26 1019.50 1018.74
1023.40 1023.87 1024.23 1024.62 1025.13 1025.54 1025.95 1026.02 1025.87 1025.77 1025.65 1025.24 1024.58 1024.06 1023.03 1022.33 1021.94 1021.49 1020.98 1020.47 1019.61 1018.74
Thickness
5514 5510 5507 5504 5498 5493 5489 5486 5483 5479 5476 5473 5471 5467 5465 5463 5461 5461 5460 5460 5460 5464
5497 5494 5490 5487 5482 5476 5472 5471 5468 5465 5462 5457 5452 5449 5447 5444 5442 5440 5440 5439 5439 5438
5483 5479 5474 5470 5464 5460 5457 5454 5451 5448 5444 5442 5436 5431 5429 5426 5423 5419 5416 5415 5415 5416
5466 5463 5459 5454 5448 5444 5439 5437 5433 5430 5427 5423 5418 5416 5412 5407 5402 5398 5395 5393 5393 5394
5453 5449 5442 5437 5433 5429 5425 5421 5417 5413 5409 5405 5400 5398 5390 5385 5380 5376 5375 5375 5374 5376
5438 5432 5425 5421 5419 5417 5413 5405 5400 5396 5391 5386 5381 5375 5368 5362 5357 5353 5352 5353 5355 5359
5422 5417 5412 5408 5405 5402 5397 5390 5385 5380 5373 5365 5360 5352 5345 5340 5335 5331 5330 5331 5331 5336
5409 5404 5398 5394 5390 5386 5382 5375 5369 5362 5353 5347 5340 5332 5327 5321 5316 5313 5312 5311 5309 5310
5397 5389 5384 5380 5376 5372 5366 5360 5353 5344 5338 5330 5324 5317 5312 5305 5300 5296 5295 5294 5291 5289
5382 5377 5372 5367 5361 5356 5350 5344 5339 5331 5322 5317 5311 5305 5298 5290 5282 5277 5273 5270 5270 5272
5373 5365 5359 5352 5347 5342 5340 5334 5326 5318 5313 5307 5300 5292 5286 5279 5270 5261 5254 5249 5248 5252
5362 5352 5347 5341 5337 5334 5329 5321 5314 5309 5304 5297 5288 5282 5277 5270 5260 5251 5242 5235 5232 5234
5352 5344 5337 5334 5328 5323 5316 5309 5305 5300 5293 5286 5278 5272 5266 5260 5250 5241 5233 5224 5220 5219
5341 5335 5331 5326 5320 5312 5304 5299 5295 5288 5281 5275 5270 5262 5257 5250 5240 5230 5221 5212 5209 5207